Regional Weather Roundup
Issued by NWS Albany, NY

Home | Current Version | Previous Version | Text Only | Print | Product List | Glossary On
Versions: 1 2 3 4 5 6 7 8 9 10 11 12 13 14 15 16 17 18 19 20 21 22 23 24 25 26 27 28 29 30 31 32 33 34 35 36 37 38 39 40 41 42 43 44 45 46 47 48 49 50
990
ASUS41 KALY 200810
RWRALY

NEW YORK STATE HOURLY WEATHER ROUNDUP
NATIONAL WEATHER SERVICE ALBANY NY
400 AM EDT FRI OCT 20 2017

NOTE: "FAIR" INDICATES FEW OR NO CLOUDS BELOW 12,000 FEET WITH NO
SIGNIFICANT WEATHER AND/OR NO OBSTRUCTIONS TO VISIBILITY.

NYZ032-033-038>043-046>054-057>066-NYZ062>081-082-084-200900-
EAST


CITY           SKY/WX    TMP DP  RH WIND       PRES   REMARKS
ALBANY         MOCLDY    57  45  64 W10       30.06S
GLENS FALLS    FAIR      55  38  52 W5        30.03R
POUGHKEEPSIE   FAIR      46  43  89 NE3       30.05S
NEWBURGH       PTCLDY    54  48  82 W7        30.08S
MONTGOMERY     FAIR      49  44  83 SW5       30.08R
WHITE PLAINS   FAIR      54  46  74 W3        30.06S
ISLIP          FAIR      54  49  83 NW3       30.06S
NEW YORK CITY  FAIR      64  47  53 W9        30.07R
CENTRAL PARK   FAIR      60  47  61 CALM      30.10S
$$

NYZ005>009-017-018-044>046-055-056-200900-
CENTRAL


CITY           SKY/WX    TMP DP  RH WIND       PRES   REMARKS
FULTON         FAIR      49  44  83 CALM      30.11S
SYRACUSE       FAIR      49  40  71 W7        30.11S
ROME           FAIR      44  43  96 NW6       30.12R
ELMIRA         FAIR      44  43  96 SW3       30.15R
BINGHAMTON     FAIR      50  42  74 W3        30.13R
MONTICELLO     FAIR      50  44  80 NW10      30.10F
$$

NYZ026>034-041>043-087-200900-
NORTH


CITY           SKY/WX    TMP DP  RH WIND       PRES   REMARKS
WATERTOWN      FAIR      50  43  77 SW6       30.08S
FORT DRUM      NOT AVBL
OGDENSBURG     FAIR      46  40  79 S6        30.03F
MASSENA        FAIR      47  39  74 SW8       30.02S
SARANAC LAKE   FAIR      45  34  65 W6        30.02S
PLATTSBURGH    FAIR      52  34  50 CALM      29.99F
$$

NYZ001>004-010>016-019>021-085-200900-
WEST


CITY           SKY/WX    TMP DP  RH WIND       PRES   REMARKS
NIAGARA FALLS    N/A     50  36  58 W3        30.15R
BUFFALO        MOCLDY    49  40  71 W3        30.15R
DUNKIRK        FAIR      47  46  97 SW5       30.17R
JAMESTOWN      FAIR      48  47  96 W5        30.19R
WELLSVILLE     FAIR      49  38  65 W8        30.18R
ROCHESTER      FAIR      45  41  86 W6        30.14R
$$

             KEY
       WCI = WIND CHILL INDEX
       VSB = VISIBILITY
       HX  = HEAT INDEX
$$




USA.gov is the U.S. government's official web portal to all federal, state and local government web resources and services.